"Pseudo-MPEC" for ZTF10EG

Created 2026 Jun 14 14:35:12 UT using Find_Orb

Click here for an explanation of pseudo-MPECs

 
 Astrometry: 
     ZTF10EG 0C2026 06 07.28657716 26 30.410-01 44 18.78   ~69Eo 18.99iUNEOCPI41
     ZTF10EG 0C2026 06 07.28692716 26 33.659-01 44 27.07   ~69Eo 18.99iUNEOCPI41
     ZTF10EG*0C2026 06 07.32853216 33 10.303-02 01 44.51   ~68GZ 18.45gUNEOCPI41
     ZTF10EG 0C2026 06 07.32887916 33 13.516-02 01 53.00   ~68GZ 18.45gUNEOCPI41
     ZTF10EG 0C2026 06 07.36188216 38 45.084-02 16 10.66   ~68Mo 17.91RUNEOCPI41
     ZTF10EG 0C2026 06 07.36223316 38 48.555-02 16 19.72   ~68Mo 17.91RUNEOCPI41

Station data:
(I41) Palomar Mountain--ZTF  (N33.357336 W116.859780)  US/California.
   Observers B. T. Bolin, Z. T. F. Collaboration. Measurers B. T. Bolin,
   Z.-Y. Lin, F. J. Masci. 1.2-m f/2.4 Schmidt.

Orbital elements:  ZTF10EG
   Perigee 2026 Jun 7.981405 +/- 0.00634 TT = 23:33:13.3 (JD 2461199.481405)
Epoch 2026 Jun  7.0 TT = JDT 2461198.5                           AutoNEOCP
q543429.7304 +/- 108471             (J2000 equator)
H   29.07 G 0.15                    Peri.  232.292355 +/- 0.6
                                    Node    57.544224 +/- 0.18
e  96.68299631 +/- 58.9             Incl.    9.177219 +/- 0.16
From 6 observations 2026 June 7 (1.8 hr); mean residual 0".73
Residuals in arcseconds: 
260607 I41  .05-  .11-    260607 I41  1.4+  .18-    260607 I41  1.0+  .11-    
260607 I41  .05+  .11+    260607 I41  1.4-  .18+    260607 I41  1.0-  .11+    

Ephemerides (geocentric):
Date (UTC) HH   RA             Dec           delta  r     elong  mag " sig PA
---- --------  ------------   ------------  ------ ------ -----  --- --------
2026 06 14 15  00 57 34.841   -06 18 54.65  .03231 1.0066  72.8 25.5  869  55
2026 06 14 16  00 57 44.713   -06 18 36.55  .03251 1.0065  72.8 25.6  871  55
2026 06 14 17  00 57 54.468   -06 18 18.62  .03271 1.0065  72.8 25.6  872  55
2026 06 14 18  00 58 04.108   -06 18 00.87  .03291 1.0064  72.8 25.6  874  55
2026 06 14 19  00 58 13.637   -06 17 43.30  .03311 1.0064  72.8 25.6  876  55
2026 06 14 20  00 58 23.055   -06 17 25.90  .03331 1.0064  72.8 25.6  877  55
2026 06 14 21  00 58 32.365   -06 17 08.68  .03351 1.0063  72.8 25.6  879  55
2026 06 14 22  00 58 41.568   -06 16 51.62  .03371 1.0063  72.8 25.6  880  55
2026 06 14 23  00 58 50.667   -06 16 34.72  .03391 1.0062  72.8 25.6  882  55
2026 06 15 00  00 58 59.664   -06 16 17.98  .03411 1.0062  72.8 25.7  883  55
2026 06 15 01  00 59 08.560   -06 16 01.40  .03430 1.0061  72.8 25.7  885  56
2026 06 15 02  00 59 17.357   -06 15 44.98  .03450 1.0061  72.8 25.7  886  56
2026 06 15 03  00 59 26.057   -06 15 28.71  .03470 1.0060  72.8 25.7  888  56
2026 06 15 04  00 59 34.661   -06 15 12.59  .03490 1.0060  72.8 25.7  889  56
2026 06 15 05  00 59 43.171   -06 14 56.61  .03510 1.0059  72.9 25.7  891  56
2026 06 15 06  00 59 51.589   -06 14 40.78  .03530 1.0059  72.9 25.7  892  56
2026 06 15 07  00 59 59.917   -06 14 25.10  .03550 1.0058  72.9 25.7  893  56
2026 06 15 08  01 00 08.155   -06 14 09.55  .03570 1.0058  72.9 25.7  895  56
2026 06 15 09  01 00 16.306   -06 13 54.14  .03590 1.0058  72.9 25.8  896  56
2026 06 15 10  01 00 24.370   -06 13 38.86  .03610 1.0057  72.9 25.8  898  56
2026 06 15 11  01 00 32.349   -06 13 23.72  .03630 1.0057  72.9 25.8  899  56
2026 06 15 12  01 00 40.246   -06 13 08.71  .03649 1.0056  72.9 25.8  900  56
2026 06 15 13  01 00 48.060   -06 12 53.82  .03669 1.0056  72.9 25.8  902  56
2026 06 15 14  01 00 55.794   -06 12 39.06  .03689 1.0055  72.9 25.8  903  57
2026 06 15 15  01 01 03.448   -06 12 24.43  .03709 1.0055  72.9 25.8  904  57
2026 06 15 16  01 01 11.025   -06 12 09.92  .03729 1.0055  72.9 25.8  905  57
2026 06 15 17  01 01 18.524   -06 11 55.52  .03749 1.0054  72.9 25.8  907  57
2026 06 15 18  01 01 25.948   -06 11 41.25  .03769 1.0054  73.0 25.9  908  57
2026 06 15 19  01 01 33.298   -06 11 27.09  .03789 1.0053  73.0 25.9  909  57
2026 06 15 20  01 01 40.575   -06 11 13.04  .03809 1.0053  73.0 25.9  910  57
2026 06 15 21  01 01 47.780   -06 10 59.11  .03828 1.0053  73.0 25.9  912  57
2026 06 15 22  01 01 54.914   -06 10 45.29  .03848 1.0052  73.0 25.9  913  57
2026 06 15 23  01 02 01.979   -06 10 31.57  .03868 1.0052  73.0 25.9  914  57
2026 06 16 00  01 02 08.974   -06 10 17.96  .03888 1.0051  73.0 25.9  915  57
2026 06 16 01  01 02 15.903   -06 10 04.46  .03908 1.0051  73.0 25.9  916  57
2026 06 16 02  01 02 22.765   -06 09 51.06  .03928 1.0051  73.0 25.9  918  57
2026 06 16 03  01 02 29.561   -06 09 37.76  .03948 1.0050  73.1 25.9  919  57
2026 06 16 04  01 02 36.293   -06 09 24.56  .03968 1.0050  73.1 26.0  920  57
2026 06 16 05  01 02 42.961   -06 09 11.46  .03988 1.0049  73.1 26.0  921  58
2026 06 16 06  01 02 49.567   -06 08 58.45  .04008 1.0049  73.1 26.0  922  58
2026 06 16 07  01 02 56.112   -06 08 45.54  .04027 1.0049  73.1 26.0  923  58
2026 06 16 08  01 03 02.596   -06 08 32.73  .04047 1.0048  73.1 26.0  924  58
2026 06 16 09  01 03 09.020   -06 08 20.00  .04067 1.0048  73.1 26.0  926  58
2026 06 16 10  01 03 15.385   -06 08 07.37  .04087 1.0047  73.1 26.0  927  58
2026 06 16 11  01 03 21.693   -06 07 54.83  .04107 1.0047  73.2 26.0  928  58
2026 06 16 12  01 03 27.943   -06 07 42.37  .04127 1.0047  73.2 26.0  929  58
2026 06 16 13  01 03 34.137   -06 07 30.00  .04147 1.0046  73.2 26.0  930  58
2026 06 16 14  01 03 40.276   -06 07 17.72  .04167 1.0046  73.2 26.0  931  58